Simultaneous Nadir Overpasses (SNOs) Predictions

Prediction of SNOs between METOP-C and LANDSAT-8 Satellite Orbit:

Table of predicted SNOs for the next 14.0 days since TLE Epoch: 11/23/2024
Index Date (METOP-C) Time (METOP-C) Lat,Lon (METOP-C) SZA (METOP-C ) Date (LANDSAT-8) Time (LANDSAT-8) Lat,Lon (LANDSAT-8) SZA (LANDSAT-8 ) Distance(km) Time Diff (sec)
1 11/24/2024 05:21:26 81.12, 139.45 104.02 11/24/2024 05:21:48 81.12, 139.32 104.01 2.21 22
2 11/24/2024 06:12:06 -81.14, -52.68 75.91 11/24/2024 06:11:14 -81.14, -52.70 75.93 0.32 52
3 11/27/2024 00:55:51 81.10,-154.55 104.48 11/27/2024 00:56:05 81.11,-154.36 104.51 3.21 14
4 11/27/2024 01:46:30 -81.13, 13.70 75.40 11/27/2024 01:45:31 -81.13, 13.63 75.44 1.33 59
5 11/29/2024 20:30:12 81.12, -87.57 105.01 11/29/2024 20:30:19 81.12, -87.72 104.99 2.59 7
6
